Miscellaneous Local Product
Issued by NWS North Platte, NE

Home | Current Version | Previous Version | Text Only | Print | Product List | Glossary On
Versions: 1 2 3 4 5 6 7 8 9 10 11 12 13 14 15 16 17 18 19 20 21 22 23 24 25 26 27 28 29 30 31 32 33 34 35 36 37 38 39 40 41 42 43 44 45 46 47 48 49 50
000
AXUS43 KLBF 310110
MISLBF


WESTERN AND NORTH CENTRAL NEBRASKA HOURLY WEATHER ROUNDUP
NATIONAL WEATHER SERVICE NORTH PLATTE NE
800 PM CDT SUN AUG 30 2015

NOTE: "FAIR" INDICATES FEW OR NO CLOUDS BELOW 12,000 FEET WITH NO
SIGNIFICANT WEATHER AND/OR OBSTRUCTIONS TO VISIBILITY.

NOTE: STATIONS NOT REPORTING VARIABLES SUCH AS SKY/WEATHER OR
PRESSURE ARE PROVIDED BY THE NEBRASKA DEPARTMENT OF
ROADS...RAWS...AND APRS NETWORKS...AND ARE NOT UNDER
NATIONAL WEATHER SERVICE QUALITY CONTROL.

...OBSERVATIONS IN AND NEAR THE EASTERN PANHANDLE OF NEBRASKA...

CITY           SKY/WX    TMP DP  RH WIND       PRES   REMARKS
PINE RIDGE     CLEAR     87  42  20 S9        29.76F
CHADRON        PTCLDY    90  43  19 S12       29.75S
ALLIANCE       CLEAR     84  47  27 S9        29.82F
SIDNEY         CLEAR     89  48  24 S16       29.89S
CRESCENT LAKE    N/A     86  47  25 S12G21      N/A
BIG SPRINGS      N/A     86  47  25 S14         N/A
$$

...OBSERVATIONS IN NORTH CENTRAL NEBRASKA...

CITY           SKY/WX    TMP DP  RH WIND       PRES   REMARKS
VALENTINE      PTCLDY    88  41  19 S18G29    29.78F
THEDFORD       CLEAR     84  54  35 S15G24    29.87S
AINSWORTH      PTCLDY    83  56  38 S15       29.83F
O`NEILL        PTCLDY    75  67  74 S15G24    29.88S
ORD            CLEAR     76  62  62 SE12G18   29.90S
BROKEN BOW     CLEAR     78  63  59 S14       29.90F
SPRINGVIEW       N/A     84  58  41 SE6         N/A
SARGENT          N/A     76  65  68 CALM        N/A
CHAMBERS         N/A     73  65  75 S7          N/A
EWING            N/A     70  62  77 S5          N/A
$$

...OBSERVATIONS IN SOUTHWEST NEBRASKA AND FAR NORTHEAST COLORADO...

CITY           SKY/WX    TMP DP  RH WIND       PRES   REMARKS
WRAY           CLOUDY    89  44  21 SE16G25   29.90F
HOLYOKE        FAIR      86  45  23 S16       29.89F
IMPERIAL       CLEAR     86  38  18 S16       29.89F
OGALLALA       CLEAR     85  43  22 S14G21    29.86S
NORTH PLATTE   CLEAR     80  43  26 SE8       29.88S
MCCOOK         CLEAR     84  41  21 S10       29.90S HAZE
LEXINGTON      CLEAR     77  62  58 SE12      29.92S
PAXTON           N/A     82  48  30 SE12        N/A
BRADY            N/A     79  61  53 CALM        N/A
CALLAWAY         N/A     73  65  76 SE12        N/A
$$

...OBSERVATIONS IN CENTRAL LINCOLN COUNTY AREA...

CITY           SKY/WX    TMP DP  RH WIND       PRES   REMARKS
N.P. AIRPORT   CLEAR     80  43  26 SE8       29.88S
N.P. DOWNTOWN    N/A     85  45  24 SE3         N/A
HILLCREST        N/A     82  45  26 SE10        N/A
$$

...SOME OBSERVATIONS FROM AROUND THE REGION...

CITY           SKY/WX    TMP DP  RH WIND       PRES   REMARKS
DENVER         PTCLDY    87  33  14 SE9       29.95F
LARAMIE        MOCLDY    72  44  36 E3        30.13F
CHEYENNE       MOCLDY    80  43  26 N14       30.05R
SCOTTSBLUFF    PTCLDY    85  59  41 E6        29.82F
RAPID CITY     MOCLDY    81  59  47 NW5       29.75R
PIERRE         CLEAR     85  56  37 SE15      29.66F
WINNER         FAIR      87  49  26 S20G29    29.74F
SIOUX FALLS    MOCLDY    70  65  84 S10       29.89F
OMAHA          PTCLDY    74  67  78 S8        29.95F
GRAND ISLAND   CLEAR     72  64  76 SE12      29.94F
KANSAS CITY    PTCLDY    78  63  59 E6        29.96S
WICHITA        PTCLDY    78  64  61 SE6       29.94F
HAYS           CLEAR     81  55  41 SE12      29.94S
LIBERAL        CLEAR     84  43  23 E8        29.97F
GOODLAND       CLEAR     82  39  21 S15       29.95S
$$



USA.gov is the U.S. government's official web portal to all federal, state and local government web resources and services.